EN

Hourly Weather Abejorral

Today, 12 June, Saturday

Time Temperature Precipitation Wind Pressure Humidity
00:00 +13°C° 1.4 mm 1 mps 586 mmHg 98%
01:00 +13°C° 0 mm 1 mps 585 mmHg 98%
02:00 +13°C° 0.1 mm 1 mps 585 mmHg 97%
03:00 +13°C° 0.1 mm 1 mps 585 mmHg 97%
04:00 +12°C° 0.1 mm 1 mps 585 mmHg 97%
05:00 +12°C° 0 mm 0 mps 585 mmHg 96%
06:00 +12°C° 0 mm 0 mps 586 mmHg 95%
07:00 +13°C° 0 mm 0 mps 586 mmHg 94%
08:00 +15°C° 0 mm 0 mps 587 mmHg 81%
09:00 +19°C° 0 mm 1 mps 588 mmHg 69%
10:00 +22°C° 0 mm 1 mps 588 mmHg 57%
11:00 +22°C° 0.3 mm 1 mps 588 mmHg 58%
12:00 +23°C° 0.3 mm 1 mps 588 mmHg 59%
13:00 +23°C° 0.3 mm 1 mps 587 mmHg 60%
14:00 +22°C° 0.7 mm 1 mps 587 mmHg 65%
15:00 +22°C° 0.7 mm 1 mps 586 mmHg 71%
16:00 +21°C° 0.7 mm 1 mps 585 mmHg 76%
17:00 +19°C° 1.4 mm 1 mps 585 mmHg 83%
18:00 +16°C° 1.4 mm 1 mps 585 mmHg 89%
19:00 +15°C° 1.4 mm 1 mps 585 mmHg 95%
20:00 +13°C° 3.8 mm 0 mps 585 mmHg 96%
21:00 +13°C° 3.8 mm 0 mps 585 mmHg 98%
22:00 +13°C° 3.8 mm 0 mps 586 mmHg 99%
23:00 +13°C° 5.4 mm 0 mps 586 mmHg 99%

Tomorrow, 13 June, Sunday

Time Temperature Precipitation Wind Pressure Humidity
00:00 +13°C° 5.4 mm 1 mps 586 mmHg 99%
01:00 +13°C° 5.4 mm 1 mps 586 mmHg 99%
02:00 +13°C° 0.7 mm 1 mps 585 mmHg 98%
03:00 +12°C° 0.7 mm 1 mps 585 mmHg 98%
04:00 +11°C° 0.7 mm 0 mps 585 mmHg 98%
05:00 +11°C° 0.1 mm 0 mps 585 mmHg 97%
06:00 +11°C° 0.1 mm 0 mps 586 mmHg 97%
07:00 +11°C° 0.1 mm 0 mps 586 mmHg 97%
08:00 +12°C° 0.3 mm 0 mps 586 mmHg 96%
09:00 +12°C° 0.3 mm 0 mps 587 mmHg 95%
10:00 +13°C° 0.3 mm 0 mps 587 mmHg 94%
11:00 +15°C° 0.1 mm 0 mps 587 mmHg 83%
12:00 +19°C° 0.1 mm 1 mps 587 mmHg 71%
13:00 +21°C° 0.1 mm 1 mps 587 mmHg 59%
14:00 +20°C° 0.5 mm 1 mps 587 mmHg 69%
15:00 +18°C° 0.5 mm 1 mps 586 mmHg 79%
16:00 +15°C° 0.5 mm 0 mps 585 mmHg 89%
17:00 +14°C° 0.7 mm 0 mps 585 mmHg 91%
18:00 +13°C° 0.7 mm 0 mps 585 mmHg 94%
19:00 +13°C° 0.7 mm 0 mps 585 mmHg 97%
20:00 +13°C° 0.3 mm 0 mps 586 mmHg 97%
21:00 +12°C° 0.3 mm 0 mps 586 mmHg 97%
22:00 +12°C° 0.3 mm 0 mps 586 mmHg 98%
23:00 +12°C° 0.4 mm 0 mps 586 mmHg 98%

Day after tomorrow, 14 June, Monday

Time Temperature Precipitation Wind Pressure Humidity
00:00 +12°C° 0.4 mm 0 mps 586 mmHg 98%
01:00 +12°C° 0.4 mm 0 mps 586 mmHg 98%
02:00 +12°C° 0.4 mm 0 mps 586 mmHg 98%
03:00 +12°C° 0.4 mm 0 mps 585 mmHg 99%
04:00 +12°C° 0.4 mm 0 mps 585 mmHg 99%
05:00 +12°C° 0 mm 0 mps 586 mmHg 98%
06:00 +12°C° 0 mm 0 mps 586 mmHg 97%
07:00 +12°C° 0 mm 0 mps 586 mmHg 97%
08:00 +14°C° 0.2 mm 0 mps 587 mmHg 90%
09:00 +16°C° 0.2 mm 1 mps 588 mmHg 83%
10:00 +19°C° 0.2 mm 1 mps 588 mmHg 76%
11:00 +19°C° 0.6 mm 1 mps 588 mmHg 77%
12:00 +17°C° 0.6 mm 0 mps 587 mmHg 77%
13:00 +18°C° 0.6 mm 0 mps 587 mmHg 78%
14:00 +17°C° 1.1 mm 0 mps 586 mmHg 83%
15:00 +16°C° 1.1 mm 0 mps 586 mmHg 87%
16:00 +16°C° 1.1 mm 0 mps 585 mmHg 91%
17:00 +15°C° 1.1 mm 0 mps 585 mmHg 94%
18:00 +14°C° 1.1 mm 0 mps 585 mmHg 96%
19:00 +13°C° 1.1 mm 0 mps 585 mmHg 98%
20:00 +13°C° 1 mm 0 mps 586 mmHg 98%
21:00 +12°C° 1 mm 0 mps 586 mmHg 98%
22:00 +12°C° 1 mm 0 mps 587 mmHg 99%
23:00 +12°C° 3.4 mm 0 mps 586 mmHg 99%

15 June, Tuesday

Time Temperature Precipitation Wind Pressure Humidity
00:00 +12°C° 3.4 mm 0 mps 586 mmHg 99%
01:00 +12°C° 3.4 mm 0 mps 586 mmHg 99%
02:00 +12°C° 2 mm 0 mps 586 mmHg 99%
03:00 +12°C° 2 mm 0 mps 586 mmHg 99%
04:00 +12°C° 2 mm 0 mps 586 mmHg 99%
05:00 +12°C° 0.3 mm 0 mps 586 mmHg 99%
06:00 +12°C° 0.3 mm 0 mps 586 mmHg 99%
07:00 +12°C° 0.3 mm 0 mps 587 mmHg 99%
08:00 +12°C° 1.4 mm 0 mps 587 mmHg 99%
09:00 +12°C° 1.4 mm 0 mps 587 mmHg 99%
10:00 +13°C° 1.4 mm 0 mps 588 mmHg 98%
11:00 +13°C° 1.5 mm 0 mps 587 mmHg 97%
12:00 +13°C° 1.5 mm 0 mps 587 mmHg 95%
13:00 +14°C° 1.5 mm 0 mps 587 mmHg 93%
14:00 +14°C° 0.2 mm 0 mps 587 mmHg 91%
15:00 +15°C° 0.2 mm 0 mps 586 mmHg 88%
16:00 +16°C° 0.2 mm 1 mps 586 mmHg 86%
17:00 +14°C° 0.4 mm 0 mps 586 mmHg 90%
18:00 +13°C° 0.4 mm 0 mps 586 mmHg 94%
19:00 +12°C° 0.4 mm 0 mps 586 mmHg 98%
20:00 +12°C° 0.2 mm 0 mps 586 mmHg 98%
21:00 +12°C° 0.2 mm 0 mps 586 mmHg 98%
22:00 +11°C° 0.2 mm 0 mps 587 mmHg 98%
23:00 +11°C° 0.1 mm 0 mps 586 mmHg 98%

16 June, Wednesday

Time Temperature Precipitation Wind Pressure Humidity
00:00 +11°C° 0.1 mm 0 mps 586 mmHg 98%
01:00 +11°C° 0.1 mm 1 mps 585 mmHg 98%
02:00 +11°C° 0 mm 1 mps 585 mmHg 97%
03:00 +11°C° 0 mm 1 mps 585 mmHg 97%
04:00 +11°C° 0 mm 1 mps 585 mmHg 97%
05:00 +10°C° 0 mm 0 mps 585 mmHg 97%
06:00 +11°C° 0 mm 0 mps 586 mmHg 96%
07:00 +12°C° 0 mm 0 mps 586 mmHg 95%
08:00 +13°C° 0.1 mm 0 mps 587 mmHg 86%
09:00 +16°C° 0.1 mm 1 mps 588 mmHg 77%
10:00 +19°C° 0.1 mm 1 mps 588 mmHg 69%
11:00 +20°C° 0.4 mm 1 mps 588 mmHg 70%
12:00 +20°C° 0.4 mm 1 mps 588 mmHg 71%
13:00 +20°C° 0.4 mm 1 mps 587 mmHg 72%
14:00 +20°C° 0.6 mm 1 mps 587 mmHg 76%
15:00 +19°C° 0.6 mm 1 mps 586 mmHg 81%
16:00 +18°C° 0.6 mm 1 mps 586 mmHg 85%
17:00 +16°C° 0.7 mm 1 mps 585 mmHg 90%
18:00 +14°C° 0.7 mm 1 mps 585 mmHg 94%
19:00 +13°C° 0.7 mm 1 mps 585 mmHg 98%
20:00 +13°C° 0.4 mm 1 mps 586 mmHg 98%
21:00 +13°C° 0.4 mm 1 mps 586 mmHg 98%
22:00 +13°C° 0.4 mm 1 mps 586 mmHg 98%
23:00 +13°C° 0.5 mm 1 mps 586 mmHg 98%

17 June, Thursday

Time Temperature Precipitation Wind Pressure Humidity
00:00 +12°C° 0.5 mm 0 mps 586 mmHg 98%
01:00 +11°C° 0.5 mm 0 mps 585 mmHg 97%
02:00 +11°C° 0.1 mm 0 mps 585 mmHg 97%
03:00 +11°C° 0.1 mm 0 mps 585 mmHg 97%
04:00 +10°C° 0.1 mm 0 mps 585 mmHg 97%
05:00 +11°C° 0 mm 0 mps 585 mmHg 97%
06:00 +11°C° 0 mm 0 mps 586 mmHg 96%
07:00 +11°C° 0 mm 0 mps 586 mmHg 95%
08:00 +14°C° 0 mm 0 mps 587 mmHg 84%
09:00 +18°C° 0 mm 1 mps 588 mmHg 74%
10:00 +20°C° 0 mm 1 mps 588 mmHg 63%
11:00 +21°C° 0.4 mm 1 mps 588 mmHg 63%
12:00 +21°C° 0.4 mm 1 mps 588 mmHg 64%
13:00 +22°C° 0.4 mm 1 mps 587 mmHg 64%
14:00 +21°C° 0.7 mm 1 mps 587 mmHg 68%
15:00 +21°C° 0.7 mm 1 mps 586 mmHg 72%
16:00 +20°C° 0.7 mm 1 mps 586 mmHg 76%
17:00 +18°C° 0.5 mm 1 mps 585 mmHg 83%
18:00 +16°C° 0.5 mm 1 mps 585 mmHg 89%
19:00 +14°C° 0.5 mm 1 mps 585 mmHg 96%
20:00 +13°C° 0.1 mm 1 mps 585 mmHg 96%
21:00 +13°C° 0.1 mm 1 mps 585 mmHg 96%
22:00 +13°C° 0.1 mm 1 mps 586 mmHg 96%
23:00 +12°C° 0 mm 1 mps 585 mmHg 96%
Show more